When you browse on this site, cookies collect data to enhance your experience and personalize the content and advertising you see.
Visit our Privacy Policy to learn more. By continuing to use the site, you agree to this use of cookies and data.
  • In Österreich
  • Länderverzeichnis
  • Für 7 Tage
  • Wassertemperatur
  • Wetterkarte
  • News
  • Widgets
  • user-avatar
    Anmelden

    Stündliche Wetter Tepatepec

    Heute, 20 Januar, Montag

    Zeit Temperatur Niederschläge Wind Luftdruck Luftfeuchtigkeit
    00:00 +12°C° 0.7 mm 2 m/S 604 mmHg 92%
    01:00 +10°C° 0.7 mm 2 m/S 604 mmHg 92%
    02:00 +11°C° 0.7 mm 1 m/S 604 mmHg 92%
    03:00 +11°C° 0.1 mm 1 m/S 604 mmHg 92%
    04:00 +11°C° 0.1 mm 1 m/S 604 mmHg 92%
    05:00 +11°C° 0.1 mm 1 m/S 604 mmHg 91%
    06:00 +12°C° 0 mm 1 m/S 605 mmHg 89%
    07:00 +12°C° 0 mm 2 m/S 605 mmHg 86%
    08:00 +12°C° 0 mm 2 m/S 606 mmHg 84%
    09:00 +13°C° 0.1 mm 2 m/S 606 mmHg 80%
    10:00 +12°C° 0.1 mm 3 m/S 606 mmHg 75%
    11:00 +13°C° 0.1 mm 3 m/S 607 mmHg 70%
    12:00 +13°C° 0 mm 3 m/S 606 mmHg 70%
    13:00 +13°C° 0 mm 4 m/S 606 mmHg 70%
    14:00 +13°C° 0 mm 4 m/S 605 mmHg 70%
    15:00 +12°C° 0 mm 3 m/S 605 mmHg 74%
    16:00 +12°C° 0 mm 3 m/S 604 mmHg 77%
    17:00 +11°C° 0 mm 3 m/S 604 mmHg 80%
    18:00 +10°C° 0 mm 3 m/S 604 mmHg 82%
    19:00 +10°C° 0 mm 2 m/S 604 mmHg 83%
    20:00 +9°C° 0 mm 2 m/S 604 mmHg 85%
    21:00 +9°C° 0 mm 2 m/S 604 mmHg 84%
    22:00 +10°C° 0 mm 1 m/S 604 mmHg 83%
    23:00 +10°C° 0 mm 1 m/S 604 mmHg 83%

    Morgen, 21 Januar, Dienstag

    Zeit Temperatur Niederschläge Wind Luftdruck Luftfeuchtigkeit
    00:00 +10°C° 0 mm 1 m/S 604 mmHg 84%
    01:00 +9°C° 0 mm 1 m/S 603 mmHg 86%
    02:00 +9°C° 0 mm 1 m/S 603 mmHg 88%
    03:00 +9°C° 0 mm 1 m/S 603 mmHg 87%
    04:00 +9°C° 0 mm 1 m/S 603 mmHg 86%
    05:00 +8°C° 0 mm 0 m/S 602 mmHg 85%
    06:00 +9°C° 0 mm 0 m/S 603 mmHg 82%
    07:00 +9°C° 0 mm 0 m/S 603 mmHg 80%
    08:00 +10°C° 0 mm 0 m/S 604 mmHg 77%
    09:00 +13°C° 0 mm 1 m/S 604 mmHg 70%
    10:00 +14°C° 0 mm 1 m/S 604 mmHg 63%
    11:00 +16°C° 0 mm 1 m/S 605 mmHg 56%
    12:00 +17°C° 0 mm 2 m/S 605 mmHg 53%
    13:00 +18°C° 0 mm 2 m/S 604 mmHg 49%
    14:00 +19°C° 0 mm 3 m/S 604 mmHg 45%
    15:00 +18°C° 0 mm 3 m/S 603 mmHg 52%
    16:00 +17°C° 0 mm 3 m/S 603 mmHg 58%
    17:00 +16°C° 0 mm 3 m/S 602 mmHg 65%
    18:00 +14°C° 0 mm 2 m/S 602 mmHg 71%
    19:00 +13°C° 0 mm 2 m/S 602 mmHg 78%
    20:00 +12°C° 0 mm 1 m/S 602 mmHg 84%
    21:00 +12°C° 0 mm 1 m/S 602 mmHg 85%
    22:00 +10°C° 0 mm 0 m/S 601 mmHg 86%
    23:00 +10°C° 0 mm 0 m/S 601 mmHg 87%

    übermorgen, 22 Januar, Mittwoch

    Zeit Temperatur Niederschläge Wind Luftdruck Luftfeuchtigkeit
    00:00 +10°C° 0 mm 0 m/S 601 mmHg 87%
    01:00 +11°C° 0 mm 1 m/S 600 mmHg 86%
    02:00 +11°C° 0 mm 1 m/S 600 mmHg 86%
    03:00 +11°C° 0 mm 1 m/S 600 mmHg 85%
    04:00 +11°C° 0 mm 1 m/S 599 mmHg 84%
    05:00 +11°C° 0 mm 1 m/S 599 mmHg 83%
    06:00 +12°C° 0 mm 1 m/S 600 mmHg 76%
    07:00 +14°C° 0 mm 1 m/S 601 mmHg 69%
    08:00 +15°C° 0 mm 2 m/S 602 mmHg 63%
    09:00 +17°C° 0 mm 2 m/S 602 mmHg 55%
    10:00 +19°C° 0 mm 2 m/S 602 mmHg 47%
    11:00 +21°C° 0 mm 3 m/S 603 mmHg 40%
    12:00 +22°C° 0 mm 3 m/S 602 mmHg 37%
    13:00 +23°C° 0 mm 4 m/S 602 mmHg 34%
    14:00 +25°C° 0 mm 5 m/S 601 mmHg 31%
    15:00 +23°C° 0 mm 5 m/S 601 mmHg 36%
    16:00 +22°C° 0 mm 4 m/S 600 mmHg 40%
    17:00 +21°C° 0 mm 4 m/S 600 mmHg 44%
    18:00 +19°C° 0 mm 3 m/S 600 mmHg 50%
    19:00 +18°C° 0 mm 2 m/S 600 mmHg 57%
    20:00 +16°C° 0 mm 1 m/S 600 mmHg 63%
    21:00 +15°C° 0 mm 1 m/S 600 mmHg 66%
    22:00 +15°C° 0 mm 1 m/S 600 mmHg 68%
    23:00 +14°C° 0 mm 1 m/S 600 mmHg 70%

    23 Januar, Donnerstag

    Zeit Temperatur Niederschläge Wind Luftdruck Luftfeuchtigkeit
    00:00 +14°C° 0 mm 1 m/S 599 mmHg 71%
    01:00 +13°C° 0 mm 1 m/S 599 mmHg 72%
    02:00 +13°C° 0 mm 1 m/S 598 mmHg 73%
    03:00 +12°C° 0 mm 1 m/S 598 mmHg 74%
    04:00 +12°C° 0 mm 1 m/S 597 mmHg 74%
    05:00 +12°C° 0 mm 1 m/S 597 mmHg 75%
    06:00 +13°C° 0 mm 1 m/S 598 mmHg 69%
    07:00 +14°C° 0 mm 1 m/S 599 mmHg 63%
    08:00 +16°C° 0 mm 1 m/S 601 mmHg 57%
    09:00 +18°C° 0 mm 1 m/S 601 mmHg 52%
    10:00 +20°C° 0 mm 1 m/S 601 mmHg 47%
    11:00 +20°C° 0 mm 2 m/S 601 mmHg 41%
    12:00 +20°C° 0 mm 2 m/S 601 mmHg 42%
    13:00 +20°C° 0 mm 2 m/S 600 mmHg 43%
    14:00 +19°C° 0 mm 2 m/S 599 mmHg 44%
    15:00 +19°C° 0 mm 2 m/S 599 mmHg 47%
    16:00 +18°C° 0 mm 2 m/S 599 mmHg 50%
    17:00 +18°C° 0 mm 2 m/S 599 mmHg 53%
    18:00 +17°C° 0.2 mm 2 m/S 599 mmHg 59%
    19:00 +16°C° 0.2 mm 1 m/S 600 mmHg 64%
    20:00 +16°C° 0.2 mm 1 m/S 600 mmHg 69%
    21:00 +15°C° 0.1 mm 1 m/S 600 mmHg 71%
    22:00 +15°C° 0.1 mm 1 m/S 600 mmHg 73%
    23:00 +15°C° 0.1 mm 1 m/S 600 mmHg 74%

    24 Januar, Freitag

    Zeit Temperatur Niederschläge Wind Luftdruck Luftfeuchtigkeit
    00:00 +14°C° 0 mm 1 m/S 599 mmHg 77%
    01:00 +14°C° 0 mm 1 m/S 599 mmHg 79%
    02:00 +14°C° 0 mm 1 m/S 598 mmHg 81%
    03:00 +13°C° 0 mm 1 m/S 599 mmHg 84%
    04:00 +13°C° 0 mm 1 m/S 599 mmHg 86%
    05:00 +13°C° 0 mm 1 m/S 599 mmHg 89%
    06:00 +13°C° 0.1 mm 1 m/S 599 mmHg 86%
    07:00 +13°C° 0.1 mm 1 m/S 600 mmHg 84%
    08:00 +14°C° 0.1 mm 1 m/S 600 mmHg 81%
    09:00 +15°C° 0.1 mm 1 m/S 601 mmHg 76%
    10:00 +16°C° 0.1 mm 2 m/S 601 mmHg 70%
    11:00 +17°C° 0.1 mm 2 m/S 601 mmHg 64%
    12:00 +18°C° 0.2 mm 2 m/S 601 mmHg 62%
    13:00 +18°C° 0.2 mm 2 m/S 601 mmHg 60%
    14:00 +19°C° 0.2 mm 3 m/S 600 mmHg 58%
    15:00 +18°C° 0.3 mm 3 m/S 600 mmHg 63%
    16:00 +17°C° 0.3 mm 3 m/S 600 mmHg 68%
    17:00 +16°C° 0.3 mm 3 m/S 600 mmHg 74%
    18:00 +14°C° 0.1 mm 3 m/S 600 mmHg 78%
    19:00 +13°C° 0.1 mm 3 m/S 600 mmHg 83%
    20:00 +14°C° 0.1 mm 2 m/S 601 mmHg 87%
    21:00 +13°C° 0 mm 2 m/S 601 mmHg 88%
    22:00 +13°C° 0 mm 2 m/S 601 mmHg 88%
    23:00 +13°C° 0 mm 1 m/S 601 mmHg 89%

    25 Januar, Samstag

    Zeit Temperatur Niederschläge Wind Luftdruck Luftfeuchtigkeit
    00:00 +13°C° 0 mm 1 m/S 601 mmHg 89%
    01:00 +13°C° 0 mm 1 m/S 601 mmHg 89%
    02:00 +13°C° 0 mm 1 m/S 600 mmHg 89%
    03:00 +13°C° 0.1 mm 1 m/S 600 mmHg 89%
    04:00 +13°C° 0.1 mm 1 m/S 601 mmHg 90%
    05:00 +13°C° 0.1 mm 1 m/S 601 mmHg 91%
    06:00 +13°C° 0.1 mm 1 m/S 601 mmHg 88%
    07:00 +14°C° 0.1 mm 1 m/S 602 mmHg 86%
    08:00 +14°C° 0.1 mm 2 m/S 602 mmHg 83%
    09:00 +15°C° 0.1 mm 2 m/S 603 mmHg 78%
    10:00 +16°C° 0.1 mm 2 m/S 603 mmHg 72%
    11:00 +17°C° 0.1 mm 2 m/S 603 mmHg 67%
    12:00 +17°C° 0.2 mm 2 m/S 602 mmHg 66%
    13:00 +17°C° 0.2 mm 3 m/S 602 mmHg 65%
    14:00 +18°C° 0.2 mm 3 m/S 601 mmHg 65%
    15:00 +17°C° 0.4 mm 3 m/S 601 mmHg 69%
    16:00 +16°C° 0.4 mm 3 m/S 601 mmHg 74%
    17:00 +15°C° 0.4 mm 2 m/S 601 mmHg 79%
    18:00 +14°C° 0.3 mm 2 m/S 601 mmHg 82%
    19:00 +14°C° 0.3 mm 2 m/S 602 mmHg 85%
    20:00 +13°C° 0.3 mm 2 m/S 602 mmHg 87%
    21:00 +13°C° 0 mm 2 m/S 602 mmHg 88%
    22:00 +13°C° 0 mm 2 m/S 602 mmHg 89%
    23:00 +13°C° 0 mm 1 m/S 602 mmHg 89%
    Mehr zeigen